1488445200.5,16233,8.06,72502.5,-1.61,-24.31,-17.59,0,*5D
1488445201.74,16234,8.13,72516.3,-1.59,-24.57,-17.97,0,*53
1488445202.98,16235,8.06,72516.5,-1.59,-24.67,-18.11,0,*50
1488445204.19,16236,8.13,72512.0,-1.55,-25.13,-18.45,0,*5C
1488445205.4,16237,8.13,72518.3,-1.59,-25.35,-18.83,0,*5F
1488445206.61,16238,8.06,72520.8,-1.59,-25.23,-18.45,0,*5D
1488445207.87,16239,8.13,72520.8,-1.59,-25.03,-18.55,0,*5F
1488445209.11,16240,8.13,72528.5,-1.55,-24.71,-18.21,0,*5A
1488445210.35,16241,8.06,72524.0,-1.55,-24.67,-18.21,0,*5C
1488445211.57,16242,8.13,72528.8,-1.53,-24.93,-18.41,0,*54
1488445212.82,16243,8.13,72528.5,-1.53,-24.93,-18.35,0,*56
1488445214.07,16244,8.13,72528.5,-1.53,-24.83,-18.25,0,*51
1488445215.32,16245,8.13,72522.0,-1.53,-25.45,-18.83,0,*57
1488445216.6,16246,8.13,72524.3,-1.53,-25.81,-19.27,0,*53
1488445217.89,16247,8.13,72512.0,-1.53,-25.81,-19.27,0,*52
1488445219.12,16248,8.06,72494.0,-1.53,-25.49,-18.83,0,*56
1488445220.32,16249,8.13,72488.0,-1.51,-24.97,-18.21,0,*5F
1488445221.58,16250,8.06,72502.3,-1.51,-26.13,-19.41,0,*5E
1488445222.81,16251,8.13,72504.8,-1.51,-26.13,-19.47,0,*59
1488445224.03,16252,8.06,72488.5,-1.53,-25.19,-18.41,0,*56
1488445225.25,16253,8.13,72474.8,-1.51,-24.47,-17.73,0,*51
1488445226.48,16254,8.13,72458.0,-1.49,-24.05,-17.31,0,*5F
1488445227.76,16255,8.13,72474.3,-1.47,-24.11,-17.25,0,*50
1488445229.0,16256,8.13,72464.8,-1.43,-24.47,-17.73,0,*57
1488445230.29,16257,8.13,72472.0,-1.43,-24.83,-17.93,0,*50
1488445231.53,16258,8.13,72490.3,-1.41,-24.21,-17.49,0,*52
1488445232.79,16259,8.13,72500.0,-1.41,-24.21,-17.45,0,*5F
1488445234.05,16260,8.13,72526.3,-1.39,-23.33,-16.97,0,*50
1488445235.29,16261,8.13,72544.0,-1.39,-23.75,-17.83,0,*57
1488445236.57,16262,8.13,72540.5,-1.35,-23.53,-17.55,0,*57
1488445237.79,16263,8.06,72510.8,-1.31,-25.19,-18.41,0,*50
1488445239.05,16264,8.13,72506.8,-1.31,-25.03,-18.41,0,*5C
1488445240.28,16265,8.06,72512.0,-1.35,-24.51,-18.41,0,*5F
1488445241.51,16266,8.13,72566.0,-1.35,-24.57,-18.25,0,*58
1488445242.77,16267,8.13,72562.8,-1.35,-25.09,-18.31,0,*56
1488445244.03,16268,8.13,72560.8,-1.35,-24.51,-17.63,0,*5D
1488445245.3,16269,8.13,72558.0,-1.31,-24.25,-17.35,0,*58
1488445246.53,16270,8.13,72542.0,-1.31,-23.89,-16.97,0,*58
1488445247.79,16271,8.13,72520.5,-1.31,-26.17,-19.17,0,*5C
1488445249.02,16272,8.13,72514.0,-1.29,-26.39,-19.23,0,*5D
1488445250.26,16273,8.13,72518.8,-1.31,-26.17,-19.07,0,*5F
1488445251.49,16274,8.13,72508.0,-1.31,-26.07,-19.03,0,*5D
1488445252.77,16275,8.13,72518.8,-1.31,-26.17,-18.93,0,*55
1488445254.0,16276,8.13,72516.8,-1.29,-26.49,-19.41,0,*5A
1488445255.26,16277,8.13,72516.3,-1.31,-26.71,-19.51,0,*58
1488445256.5,16278,8.13,72508.3,-1.29,-26.55,-18.89,0,*5C
1488445257.73,16279,8.13,72500.5,-1.29,-25.35,-17.79,0,*58
1488445258.98,16280,8.13,72480.0,-1.27,-25.45,-17.87,0,*56
1488445260.23,16281,8.13,72482.3,-1.27,-25.29,-17.73,0,*56
1488445261.46,16282,8.13,72484.0,-1.25,-25.29,-17.73,0,*57
1488445262.69,16283,8.13,72492.3,-1.23,-26.45,-19.13,0,*51
1488445263.93,16284,8.13,72474.3,-1.25,-27.61,-20.05,0,*5A
1488445265.15,16285,8.13,72488.0,-1.25,-27.77,-20.15,0,*5D
1488445266.38,16286,8.06,72502.5,-1.27,-26.45,-19.17,0,*54
1488445267.62,16287,8.13,72500.0,-1.29,-27.29,-19.81,0,*5F
1488445268.91,16288,8.06,72498.8,-1.27,-26.33,-19.41,0,*58
1488445270.1,16289,8.13,72500.8,-1.29,-25.91,-18.99,0,*58
1488445271.35,16290,8.13,72514.5,-1.31,-26.23,-18.93,0,*59
1488445272.6,16291,8.13,72526.8,-1.31,-25.35,-18.01,0,*57
1488445273.83,16292,8.13,72552.5,-1.31,-25.39,-17.83,0,*5D
1488445275.08,16293,8.13,72542.5,-1.31,-26.03,-18.11,0,*52
1488445276.31,16294,8.13,72562.3,-1.29,-25.97,-18.21,0,*51
1488445277.52,16295,8.13,72558.0,-1.29,-26.49,-18.49,0,*5E
1488445278.75,16296,8.13,72560.3,-1.29,-26.77,-18.65,0,*5E
1488445279.96,16297,8.13,72564.5,-1.29,-26.65,-18.49,0,*52
1488445281.22,16298,8.13,72558.0,-1.27,-26.29,-18.21,0,*55
1488445282.45,16299,8.13,72556.8,-1.29,-26.61,-18.35,0,*53
1488445283.71,16300,8.13,72518.0,-1.27,-26.93,-18.65,0,*54
1488445284.94,16301,8.13,72504.8,-1.29,-26.81,-18.49,0,*56
1488445286.21,16302,8.13,72476.0,-1.29,-27.61,-19.41,0,*53
1488445287.43,16303,8.13,72482.3,-1.29,-27.35,-19.03,0,*55
1488445288.71,16304,8.13,72484.0,-1.27,-26.77,-18.35,0,*5F
1488445289.96,16305,8.13,72488.8,-1.29,-26.03,-17.97,0,*54
1488445291.21,16306,8.13,72510.3,-1.27,-25.19,-17.17,0,*59
1488445292.49,16307,8.06,72516.8,-1.27,-24.15,-16.31,0,*50
1488445293.71,16308,8.06,72524.5,-1.25,-25.29,-17.69,0,*5F
1488445294.94,16309,8.13,72534.8,-1.25,-25.39,-17.45,0,*51
1488445296.14,16310,8.13,72516.5,-1.25,-25.87,-17.69,0,*52
1488445297.37,16311,8.13,72514.8,-1.25,-25.97,-17.69,0,*52
1488445298.63,16312,8.13,72514.0,-1.25,-25.55,-17.17,0,*56
1488445299.86,16313,8.13,72528.8,-1.21,-25.87,-17.63,0,*5F
1488445301.09,16314,8.13,72540.0,-1.21,-26.17,-17.69,0,*58
1488445302.31,16315,8.13,72556.0,-1.21,-25.45,-16.93,0,*59
1488445303.54,16316,8.13,72562.3,-1.19,-24.61,-16.45,0,*5D
1488445304.8,16317,8.13,72564.0,-1.19,-24.71,-16.55,0,*5C
1488445306.05,16318,8.13,72576.5,-1.17,-26.29,-17.93,0,*59
1488445307.3,16319,8.13,72522.8,-1.17,-26.29,-17.79,0,*5C
1488445308.53,16320,8.13,72526.8,-1.17,-26.61,-17.97,0,*5A
1488445309.75,16321,8.13,72540.0,-1.17,-25.29,-16.89,0,*5A
1488445310.99,16322,8.13,72550.8,-1.15,-25.39,-17.11,0,*5A
1488445312.25,16323,8.13,72552.0,-1.15,-26.97,-18.59,0,*5F
1488445313.51,16324,8.13,72546.3,-1.15,-26.29,-17.93,0,*54
1488445314.78,16325,8.13,72558.5,-1.15,-26.77,-18.31,0,*59
1488445315.99,16326,8.13,72554.8,-1.17,-26.03,-17.73,0,*52
1488445317.21,16327,8.13,72558.5,-1.15,-25.13,-16.75,0,*54
1488445318.48,16328,8.13,72550.8,-1.15,-24.83,-16.69,0,*5E
1488445319.71,16329,8.13,72546.8,-1.15,-25.29,-16.97,0,*5F
1488445321.0,16330,8.13,72534.3,-1.13,-25.75,-17.41,0,*52
1488445322.26,16331,8.13,72532.0,-1.13,-25.39,-17.11,0,*5E
1488445323.49,16332,8.13,72532.5,-1.11,-25.49,-17.25,0,*5F
1488445324.73,16333,8.13,72510.0,-1.11,-25.75,-17.49,0,*5B
1488445325.96,16334,8.13,72538.0,-1.11,-25.91,-17.55,0,*5B
1488445327.17,16335,8.13,72558.5,-1.11,-25.65,-17.35,0,*57
1488445328.41,16336,8.13,72550.0,-1.11,-25.39,-17.11,0,*5B
1488445329.64,16337,8.13,72542.3,-1.11,-25.55,-17.49,0,*5D
1488445330.89,16338,8.13,72552.3,-1.07,-26.17,-17.87,0,*52
1488445332.13,16339,8.13,72554.3,-1.05,-25.65,-17.35,0,*5E
1488445333.33,16340,8.13,72534.8,-1.07,-25.23,-16.93,0,*5D
1488445334.61,16341,8.13,72536.3,-1.05,-25.81,-17.63,0,*58
1488445335.9,16342,8.13,72514.5,-1.05,-25.71,-17.45,0,*50
1488445337.17,16343,8.13,72500.8,-1.07,-25.55,-17.41,0,*51
1488445338.4,16344,8.13,72526.8,-1.05,-25.13,-16.93,0,*58
1488445339.62,16345,8.13,72538.3,-1.05,-24.97,-16.93,0,*54
1488445340.87,16346,8.13,72552.5,-1.05,-24.31,-16.59,0,*5D
1488445342.13,16347,8.13,72552.3,-1.03,-23.99,-16.27,0,*56
1488445343.42,16348,8.13,72550.0,-1.01,-24.83,-16.69,0,*5D
1488445344.67,16349,8.13,72550.0,-1.03,-25.29,-17.17,0,*57
1488445345.91,16350,8.13,72544.5,-0.99,-24.83,-16.59,0,*67
1488445347.1,16351,8.13,72570.5,-0.99,-25.23,-16.89,0,*60
1488445348.36,16352,8.13,72576.3,-0.97,-24.61,-16.65,0,*68
1488445349.58,16353,8.13,72578.8,-0.97,-24.35,-16.45,0,*6A
1488445350.81,16354,8.13,72570.8,-0.99,-23.95,-15.95,0,*60
1488445352.04,16355,8.13,72564.0,-0.97,-24.35,-16.37,0,*69
1488445353.32,16356,8.13,72558.5,-0.93,-24.41,-16.51,0,*6D
1488445354.58,16357,8.13,72560.5,-0.93,-24.21,-15.99,0,*6D
1488445355.85,16358,8.13,72558.3,-0.93,-24.15,-16.27,0,*63
1488445357.13,16359,8.13,72558.3,-0.89,-24.25,-16.23,0,*6E
1488445358.39,16360,8.13,72568.3,-0.89,-23.53,-15.53,0,*66
1488445359.64,16361,8.13,72556.8,-0.89,-24.11,-15.99,0,*60
1488445360.9,16362,8.13,72536.3,-0.89,-24.47,-16.23,0,*62
1488445362.16,16363,8.13,72546.5,-0.83,-24.51,-16.31,0,*6D
1488445363.37,16364,8.13,72550.0,-0.85,-24.93,-16.79,0,*6E
1488445364.64,16365,8.13,72546.0,-0.83,-24.51,-16.27,0,*6C
1488445365.86,16366,8.13,72544.3,-0.79,-25.09,-16.83,0,*68
1488445367.1,16367,8.13,72538.8,-0.81,-24.83,-16.59,0,*6A
1488445368.36,16368,8.13,72538.5,-0.79,-24.11,-15.95,0,*6A
1488445369.61,16369,8.13,72524.0,-0.79,-24.93,-16.69,0,*61
1488445370.85,16370,8.13,72550.3,-0.79,-24.67,-16.45,0,*6C
1488445372.07,16371,8.13,72528.3,-0.75,-24.93,-16.83,0,*60
1488445373.37,16372,8.13,72540.5,-0.75,-24.25,-16.17,0,*63
1488445374.65,16373,8.13,72514.0,-0.75,-25.29,-17.07,0,*6F
1488445375.87,16374,8.13,72528.5,-0.75,-25.09,-16.83,0,*67
1488445377.08,16375,8.13,72502.5,-0.73,-25.87,-17.69,0,*63
1488445378.3,16376,8.13,72506.3,-0.73,-26.55,-18.11,0,*6C
1488445379.53,16377,8.13,72510.0,-0.73,-25.23,-17.07,0,*67
1488445380.76,16378,8.13,72496.3,-0.73,-26.17,-17.87,0,*64
1488445381.99,16379,8.13,72482.3,-0.73,-25.23,-17.07,0,*69
1488445383.24,16380,8.13,72496.0,-0.75,-25.71,-17.31,0,*6B
1488445384.46,16381,8.13,72514.5,-0.75,-25.09,-16.97,0,*68
1488445385.72,16382,8.13,72508.5,-0.75,-25.19,-17.07,0,*62
1488445386.95,16383,8.13,72514.5,-0.75,-26.03,-17.73,0,*68
1488445388.18,16384,8.13,72518.0,-0.77,-24.77,-16.69,0,*66
1488445389.46,16385,8.13,72518.8,-0.75,-23.29,-15.89,0,*64
1488445390.72,16386,8.13,72514.0,-0.75,-23.43,-15.89,0,*6B
1488445391.96,16387,8.13,72526.0,-0.75,-22.93,-15.53,0,*61
1488445393.18,16388,8.13,72540.0,-0.73,-22.77,-15.63,0,*61
1488445394.41,16389,8.13,72528.3,-0.71,-21.39,-14.15,0,*6B
1488445395.63,16390,8.13,72538.0,-0.71,-22.63,-15.63,0,*6F
1488445396.88,16391,8.13,72544.3,-0.71,-22.73,-15.63,0,*6F
1488445398.13,16392,8.13,72530.0,-0.71,-22.63,-15.35,0,*6E
1488445399.33,16393,8.13,72538.5,-0.69,-23.43,-16.03,0,*63
1488445400.54,16394,8.13,72524.3,-0.69,-23.13,-15.49,0,*6C
1488445401.79,16395,8.13,72534.3,-0.69,-23.99,-16.23,0,*60
1488445403.03,16396,8.13,72516.5,-0.69,-24.25,-16.59,0,*6E
1488445404.26,16397,8.13,72504.0,-0.67,-24.05,-16.41,0,*6A
1488445405.49,16398,8.13,72516.5,-0.69,-23.99,-16.37,0,*68
1488445406.72,16399,8.19,72494.0,-0.69,-24.41,-16.79,0,*61
1488445407.98,16400,8.13,72496.5,-0.67,-24.15,-16.59,0,*6B
1488445409.21,16401,8.13,72506.5,-0.69,-24.05,-16.51,0,*6D
1488445410.44,16402,8.13,72508.8,-0.69,-23.99,-16.59,0,*64
1488445411.67,16403,8.13,72506.0,-0.69,-23.99,-16.59,0,*65
1488445412.92,16404,8.13,72524.5,-0.69,-24.67,-17.25,0,*6E
1488445414.14,16405,8.13,72504.0,-0.69,-23.99,-16.89,0,*6E
1488445415.37,16406,8.13,72472.0,-0.69,-23.75,-16.51,0,*6A
1488445416.57,16407,8.13,72462.3,-0.69,-23.59,-16.45,0,*60
1488445417.82,16408,8.13,72474.8,-0.69,-23.23,-16.23,0,*62
1488445419.02,16409,8.13,72494.5,-0.69,-22.93,-15.99,0,*6B
1488445420.22,16410,8.13,72502.0,-0.69,-23.13,-16.45,0,*68
1488445421.47,16411,8.13,72502.8,-0.67,-21.77,-15.21,0,*66
1488445422.73,16412,8.13,72494.5,-0.67,-22.21,-15.71,0,*60
1488445424.01,16413,8.13,72488.5,-0.63,-21.23,-15.01,0,*63
1488445425.23,16414,8.13,72502.3,-0.63,-21.39,-15.15,0,*6A
1488445426.49,16415,8.13,72496.0,-0.63,-21.13,-15.01,0,*66
1488445427.76,16416,8.13,72498.3,-0.63,-22.31,-16.27,0,*61
1488445429.04,16417,8.13,72508.8,-0.63,-22.21,-16.51,0,*60
1488445430.29,16418,8.13,72492.5,-0.63,-22.37,-16.27,0,*69
1488445431.52,16419,8.13,72502.5,-0.63,-22.67,-16.79,0,*66
1488445432.8,16420,8.13,72498.3,-0.63,-22.21,-16.51,0,*64
1488445434.02,16421,8.19,72486.3,-0.63,-22.07,-16.79,0,*6B
1488445435.29,16422,8.19,72494.5,-0.63,-22.21,-16.51,0,*66
1488445436.52,16423,8.13,72492.5,-0.67,-21.63,-16.41,0,*67
1488445437.8,16424,8.13,72484.0,-0.67,-21.33,-16.31,0,*62
1488445439.05,16425,8.13,72506.8,-0.67,-21.17,-16.31,0,*65
1488445440.28,16426,8.13,72496.3,-0.61,-20.93,-16.13,0,*6D
1488445441.51,16427,8.13,72514.0,-0.63,-21.73,-16.83,0,*68
1488445442.74,16428,8.19,72510.5,-0.63,-21.13,-16.41,0,*6F
1488445443.98,16429,8.13,72516.5,-0.67,-21.33,-16.89,0,*6C
1488445445.21,16430,8.19,72526.8,-0.69,-21.17,-17.17,0,*6A
1488445446.46,16431,8.13,72532.0,-0.67,-20.39,-16.27,0,*6A
1488445447.72,16432,8.13,72528.5,-0.67,-19.75,-15.85,0,*60
1488445448.97,16433,8.13,72528.0,-0.61,-20.79,-16.65,0,*6C
1488445450.19,16434,8.19,72532.0,-0.61,-21.09,-17.17,0,*69
1488445451.39,16435,8.13,72538.5,-0.61,-20.89,-16.97,0,*68
1488445452.62,16436,8.13,72526.5,-0.61,-20.49,-16.79,0,*67
1488445453.88,16437,8.13,72532.5,-0.61,-20.49,-17.07,0,*6E
1488445455.11,16438,8.13,72514.5,-0.59,-20.69,-17.35,0,*69
1488445456.33,16439,8.13,72508.5,-0.57,-20.93,-17.55,0,*65
1488445457.6,16440,8.13,72518.8,-0.55,-20.79,-17.63,0,*68
1488445458.83,16441,8.13,72524.0,-0.57,-20.93,-17.93,0,*60
1488445460.09,16442,8.13,72522.5,-0.59,-20.89,-18.01,0,*62
1488445461.31,16443,8.13,72512.5,-0.57,-20.83,-18.45,0,*67
1488445462.6,16444,8.13,72504.8,-0.59,-20.83,-18.31,0,*6D
1488445463.84,16445,8.13,72468.0,-0.57,-20.15,-17.63,0,*65
1488445465.05,16446,8.13,72478.5,-0.57,-20.43,-18.11,0,*6F
1488445466.27,16447,8.13,72504.5,-0.53,-20.83,-18.79,0,*68
1488445467.49,16448,8.19,72536.0,-0.55,-20.63,-18.49,0,*6C
1488445468.72,16449,8.13,72540.8,-0.53,-20.63,-18.55,0,*66
1488445469.94,16450,8.13,72526.5,-0.53,-20.09,-17.97,0,*63
1488445471.15,16451,8.19,72532.5,-0.53,-18.99,-16.75,0,*6D
1488445472.34,16452,8.13,72534.0,-0.49,-20.29,-18.45,0,*68
1488445473.59,16453,8.13,72542.5,-0.51,-20.35,-18.45,0,*6D
1488445474.85,16454,8.13,72542.8,-0.51,-21.93,-20.19,0,*65
1488445476.07,16455,8.19,72552.0,-0.49,-21.43,-19.81,0,*6B
1488445477.32,16456,8.13,72550.3,-0.51,-20.93,-18.93,0,*6F
1488445478.58,16457,8.13,72550.8,-0.51,-20.93,-19.27,0,*60
1488445479.79,16458,8.13,72558.5,-0.49,-20.79,-19.07,0,*60
1488445481.02,16459,8.13,72554.3,-0.49,-20.15,-18.45,0,*6C
1488445482.27,16460,8.13,72548.5,-0.51,-21.57,-19.91,0,*60
1488445483.5,16461,8.13,72536.0,-0.49,-21.77,-20.15,0,*6C
1488445484.74,16462,8.13,72544.3,-0.49,-21.13,-19.57,0,*61
1488445486.02,16463,8.13,72540.0,-0.51,-21.87,-20.19,0,*64
1488445487.28,16464,8.19,72548.3,-0.47,-21.87,-20.25,0,*6B
1488445488.52,16465,8.13,72532.3,-0.49,-21.87,-20.29,0,*68
1488445489.77,16466,8.13,72550.3,-0.47,-22.31,-20.73,0,*64
1488445491.02,16467,8.13,72558.0,-0.47,-21.83,-19.99,0,*61
1488445492.3,16468,8.13,72558.5,-0.47,-21.53,-19.85,0,*6E
1488445493.56,16469,8.13,72558.3,-0.47,-22.17,-20.59,0,*67
1488445494.82,16470,8.13,72546.0,-0.47,-22.73,-20.89,0,*60
1488445496.05,16471,8.13,72544.5,-0.47,-22.63,-20.93,0,*6B
1488445497.27,16472,8.13,72554.0,-0.47,-22.27,-20.69,0,*6D
1488445498.51,16473,8.19,72554.8,-0.45,-21.83,-20.39,0,*66
1488445499.73,16474,8.13,72552.3,-0.45,-22.63,-21.33,0,*67
1488445500.93,16475,8.13,72542.3,-0.45,-23.09,-21.63,0,*6E
1488445502.19,16476,8.13,72528.5,-0.45,-23.53,-22.31,0,*66
1488445503.44,16477,8.13,72536.3,-0.45,-23.69,-22.31,0,*6E
1488445504.69,16478,8.13,72528.8,-0.45,-23.23,-21.97,0,*60
1488445505.89,16479,8.19,72516.5,-0.45,-22.93,-21.63,0,*60
1488445507.13,16480,8.13,72520.0,-0.47,-23.69,-22.41,0,*63
1488445508.41,16481,8.13,72526.0,-0.43,-23.03,-21.87,0,*63
1488445509.64,16482,8.13,72528.5,-0.45,-22.93,-21.67,0,*60
1488445510.85,16483,8.13,72532.5,-0.45,-22.41,-20.93,0,*64
1488445512.08,16484,8.13,72534.8,-0.45,-22.77,-21.39,0,*67
1488445513.33,16485,8.13,72536.0,-0.43,-22.77,-21.43,0,*6D
1488445514.55,16486,8.13,72538.3,-0.43,-22.87,-21.47,0,*65
1488445515.81,16487,8.19,72538.8,-0.39,-22.67,-21.23,0,*65
1488445517.06,16488,8.13,72538.0,-0.43,-22.93,-21.57,0,*6F
1488445518.33,16489,8.13,72540.3,-0.39,-22.53,-21.23,0,*6C
1488445519.59,16490,8.13,72538.0,-0.35,-23.13,-21.87,0,*63
1488445520.87,16491,8.13,72536.0,-0.35,-22.77,-21.53,0,*68
1488445522.13,16492,8.13,72530.5,-0.35,-22.57,-21.33,0,*6F
1488445523.35,16493,8.13,72536.5,-0.33,-22.67,-21.57,0,*69
1488445524.61,16494,8.13,72536.0,-0.33,-23.23,-22.17,0,*68
1488445525.88,16495,8.13,72540.3,-0.31,-23.33,-22.21,0,*6F
1488445527.13,16496,8.13,72546.0,-0.31,-23.53,-22.41,0,*6C
1488445528.39,16497,8.19,72548.8,-0.31,-23.99,-22.87,0,*61
1488445529.62,16498,8.13,72554.5,-0.29,-23.99,-22.97,0,*66
1488445530.83,16499,8.13,72540.0,-0.29,-24.31,-23.13,0,*6F
1488445532.06,16500,8.19,72550.8,-0.29,-24.11,-22.87,0,*60
1488445533.29,16501,8.13,72550.5,-0.29,-23.69,-22.53,0,*60
1488445534.5,16502,8.13,72554.0,-0.29,-24.57,-23.43,0,*69
1488445535.75,16503,8.13,72546.0,-0.27,-24.77,-23.49,0,*6E
1488445536.95,16504,8.13,72550.3,-0.29,-25.13,-23.79,0,*67
1488445538.17,16505,8.13,72558.8,-0.27,-24.97,-23.79,0,*65
1488445539.45,16506,8.13,72554.0,-0.27,-24.83,-23.53,0,*6B
1488445540.71,16507,8.13,72546.5,-0.29,-24.83,-23.33,0,*62
1488445541.95,16508,8.19,72554.8,-0.27,-24.15,-22.67,0,*6C
1488445543.21,16509,8.13,72550.0,-0.27,-24.41,-22.87,0,*62
1488445544.45,16510,8.19,72560.3,-0.27,-25.61,-23.95,0,*6B
1488445545.72,16511,8.19,72570.5,-0.27,-25.81,-23.99,0,*68
1488445547.0,16512,8.13,72566.3,-0.27,-25.55,-23.69,0,*6D
1488445548.2,16513,8.13,72550.8,-0.29,-25.65,-23.79,0,*60
1488445549.45,16514,8.19,72554.0,-0.29,-25.29,-23.33,0,*61
1488445550.65,16515,8.13,72558.3,-0.29,-26.39,-24.31,0,*67
1488445551.87,16516,8.13,72552.5,-0.29,-26.23,-23.99,0,*6A
1488445553.12,16517,8.19,72556.5,-0.29,-26.55,-24.11,0,*6D
1488445554.35,16518,8.19,72566.5,-0.29,-26.81,-24.31,0,*69
1488445555.6,16519,8.13,72548.0,-0.29,-26.55,-23.85,0,*69
1488445556.81,16520,8.19,72530.0,-0.33,-26.39,-23.59,0,*63
1488445558.06,16521,8.13,72526.5,-0.31,-26.97,-24.05,0,*6A
1488445559.3,16522,8.13,72518.8,-0.33,-26.77,-23.75,0,*65
1488445560.53,16523,8.13,72508.3,-0.33,-26.39,-23.29,0,*67
1488445561.75,16524,8.13,72534.3,-0.33,-27.07,-23.95,0,*6B
1488445562.98,16525,8.13,72556.8,-0.33,-27.07,-23.95,0,*6A
1488445564.23,16526,8.13,72562.3,-0.37,-27.45,-24.25,0,*67
1488445565.46,16527,8.13,72548.0,-0.39,-27.55,-24.31,0,*6C
1488445566.68,16528,8.19,72562.0,-0.39,-26.23,-22.97,0,*69
1488445567.97,16529,8.19,72560.8,-0.43,-26.29,-23.23,0,*61
1488445569.24,16530,8.19,72562.0,-0.39,-25.71,-22.73,0,*6E
1488445570.5,16531,8.13,72560.5,-0.39,-25.71,-22.97,0,*65
1488445571.78,16532,8.13,72548.8,-0.39,-25.81,-23.19,0,*6E
1488445573.04,16533,8.19,72542.3,-0.37,-25.97,-23.19,0,*66
1488445574.31,16534,8.13,72548.5,-0.43,-26.81,-24.15,0,*6D
1488445575.56,16535,8.13,72542.0,-0.43,-26.61,-23.99,0,*61
1488445576.83,16536,8.19,72558.5,-0.39,-26.93,-24.15,0,*61
1488445578.11,16537,8.19,72544.8,-0.39,-26.81,-23.99,0,*60
1488445579.39,16538,8.19,72528.3,-0.43,-26.77,-23.99,0,*6B
1488445580.61,16539,8.19,72544.8,-0.39,-27.55,-24.57,0,*63
1488445581.89,16540,8.19,72552.0,-0.43,-27.45,-24.21,0,*60
1488445583.16,16541,8.19,72566.5,-0.47,-27.19,-24.11,0,*6F
1488445584.38,16542,8.19,72556.0,-0.45,-26.71,-23.43,0,*61
1488445585.59,16543,8.19,72552.0,-0.45,-26.39,-23.09,0,*62
1488445586.8,16544,8.19,72558.0,-0.45,-26.87,-23.43,0,*6E
1488445588.03,16545,8.19,72534.5,-0.47,-27.07,-23.43,0,*64
1488445589.28,16546,8.13,72532.3,-0.47,-27.23,-23.43,0,*61
1488445590.53,16547,8.19,72542.8,-0.47,-27.35,-23.39,0,*6A
1488445591.75,16548,8.13,72526.0,-0.47,-27.89,-23.75,0,*6A
1488445593.01,16549,8.19,72534.5,-0.49,-26.55,-22.31,0,*64
1488445594.21,16550,8.19,72542.3,-0.49,-26.39,-21.77,0,*67
1488445595.42,16551,8.13,72522.0,-0.49,-26.61,-22.03,0,*6B
1488445596.67,16552,8.13,72518.0,-0.51,-27.45,-22.37,0,*61
1488445597.95,16553,8.19,72512.5,-0.51,-26.77,-21.57,0,*65
1488445599.23,16554,8.19,72520.0,-0.51,-25.97,-20.83,0,*67
1488445600.52,16555,8.19,72512.5,-0.51,-26.29,-21.23,0,*6B
1488445601.8,16556,8.19,72518.8,-0.51,-25.55,-20.79,0,*6E
1488445603.06,16557,8.19,72506.5,-0.49,-25.75,-21.27,0,*6E
1488445604.29,16558,8.19,72500.8,-0.55,-26.03,-21.73,0,*6F
1488445605.5,16559,8.19,72504.8,-0.53,-26.03,-22.11,0,*6F
1488445606.72,16560,8.19,72516.5,-0.53,-26.49,-22.73,0,*6F
1488445607.95,16561,8.19,72520.5,-0.55,-26.61,-22.67,0,*67
1488445609.17,16562,8.13,72518.0,-0.53,-25.91,-21.83,0,*67
1488445610.39,16563,8.13,72508.0,-0.55,-25.91,-21.63,0,*6E
1488445611.63,16564,8.19,72524.5,-0.55,-25.81,-21.63,0,*68
1488445612.88,16565,8.19,72522.8,-0.53,-25.45,-21.27,0,*67
1488445614.16,16566,8.19,72504.5,-0.55,-24.83,-20.83,0,*66
1488445615.4,16567,8.19,72500.5,-0.53,-24.51,-20.49,0,*68
1488445616.66,16568,8.19,72506.3,-0.51,-24.11,-20.73,0,*68
1488445617.9,16569,8.19,72520.8,-0.51,-24.47,-21.13,0,*6D
1488445619.18,16570,8.19,72540.3,-0.51,-23.99,-20.83,0,*69
1488445620.41,16571,8.19,72546.0,-0.49,-24.97,-21.67,0,*63
1488445621.62,16572,8.19,72520.3,-0.49,-25.39,-22.53,0,*61
1488445622.84,16573,8.19,72502.3,-0.49,-25.45,-22.53,0,*6B
1488445624.04,16574,8.19,72500.3,-0.49,-26.45,-23.59,0,*64
1488445625.27,16575,8.19,72514.0,-0.49,-24.87,-22.07,0,*63
1488445626.53,16576,8.19,72524.3,-0.47,-25.55,-22.57,0,*65
1488445627.75,16577,8.19,72528.8,-0.47,-25.91,-23.13,0,*6D
1488445628.98,16578,8.19,72514.5,-0.47,-25.49,-22.57,0,*66
1488445630.23,16579,8.19,72544.0,-0.49,-27.23,-24.41,0,*66
1488445631.49,16580,8.19,72546.3,-0.51,-25.75,-22.87,0,*64
1488445632.72,16581,8.19,72520.8,-0.51,-25.87,-22.97,0,*69
1488445633.94,16582,8.19,72488.0,-0.51,-25.39,-22.37,0,*65
1488445635.2,16583,8.19,72502.8,-0.51,-25.55,-22.63,0,*6F
1488445636.43,16584,8.19,72544.5,-0.49,-24.93,-22.17,0,*69
1488445637.67,16585,8.19,72532.0,-0.49,-24.71,-21.43,0,*66
1488445638.93,16586,8.19,72548.0,-0.49,-24.15,-21.27,0,*65
1488445640.18,16587,8.19,72560.5,-0.47,-24.51,-21.53,0,*69
1488445641.43,16588,8.19,72562.0,-0.47,-24.67,-21.63,0,*60
1488445642.68,16589,8.19,72544.8,-0.43,-24.35,-21.33,0,*67
1488445643.88,16590,8.19,72576.3,-0.45,-25.35,-22.41,0,*6E
1488445645.07,16591,8.19,72576.3,-0.45,-25.19,-22.41,0,*61
1488445646.27,16592,8.19,72574.3,-0.45,-25.87,-23.13,0,*63
1488445647.49,16593,8.19,72564.0,-0.45,-24.67,-21.73,0,*69
1488445648.75,16594,8.19,72560.3,-0.43,-24.47,-21.67,0,*6F
1488445650.01,16595,8.19,72512.8,-0.43,-24.77,-22.21,0,*6C
1488445651.25,16596,8.19,72516.8,-0.43,-25.29,-22.57,0,*64
1488445652.47,16597,8.19,72546.0,-0.43,-24.97,-22.37,0,*67
1488445653.69,16598,8.19,72556.0,-0.45,-25.03,-22.41,0,*63
1488445654.95,16599,8.19,72560.8,-0.47,-24.83,-22.27,0,*69
1488445656.17,16600,8.19,72568.0,-0.45,-25.23,-22.73,0,*62
1488445657.39,16601,8.19,72572.5,-0.45,-24.93,-22.47,0,*6E
1488445658.65,16602,8.19,72572.8,-0.45,-24.83,-22.31,0,*6D
1488445659.88,16603,8.19,72566.5,-0.45,-24.35,-21.97,0,*6E
1488445661.12,16604,8.19,72572.3,-0.45,-24.51,-22.17,0,*60
1488445662.33,16605,8.19,72564.3,-0.45,-24.51,-22.11,0,*67
1488445663.55,16606,8.19,72576.0,-0.43,-24.61,-22.37,0,*65
1488445664.83,16607,8.19,72574.5,-0.43,-23.99,-21.67,0,*62
1488445666.07,16608,8.19,72572.3,-0.43,-23.69,-21.43,0,*64
1488445667.32,16609,8.19,72576.0,-0.43,-24.15,-22.11,0,*6D
1488445668.6,16610,8.19,72572.5,-0.39,-23.95,-21.87,0,*6B
1488445669.86,16611,8.19,72572.8,-0.43,-23.75,-21.83,0,*6D
1488445671.09,16612,8.19,72566.8,-0.39,-23.43,-21.39,0,*67
1488445672.34,16613,8.19,72556.8,-0.39,-23.65,-21.63,0,*6D
1488445673.62,16614,8.19,72562.0,-0.39,-24.15,-22.31,0,*6E
1488445674.85,16615,8.19,72564.8,-0.37,-24.15,-22.37,0,*67
1488445676.06,16616,8.19,72574.5,-0.37,-24.47,-22.63,0,*62
1488445677.29,16617,8.19,72560.3,-0.37,-24.15,-22.53,0,*67
1488445678.51,16618,8.19,72540.5,-0.37,-24.15,-22.53,0,*68
1488445679.74,16619,8.19,72538.5,-0.37,-24.41,-22.87,0,*61
1488445681.02,16620,8.19,72556.8,-0.39,-25.55,-24.11,0,*68
1488445682.27,16621,8.19,72552.5,-0.39,-24.77,-23.29,0,*64
1488445683.51,16622,8.19,72552.8,-0.43,-24.97,-23.65,0,*6C
1488445684.77,16623,8.19,72558.0,-0.39,-24.83,-23.59,0,*6A
1488445686.01,16624,8.19,72562.8,-0.43,-24.77,-23.65,0,*64
1488445687.22,16625,8.19,72578.3,-0.45,-24.57,-23.39,0,*68
1488445688.45,16626,8.19,72568.0,-0.43,-24.31,-22.93,0,*6C
1488445689.7,16627,8.19,72580.5,-0.43,-24.15,-22.93,0,*6B
1488445690.96,16628,8.19,72574.0,-0.43,-23.99,-22.87,0,*62
1488445692.21,16629,8.19,72568.8,-0.43,-23.99,-23.09,0,*64
1488445693.46,16630,8.19,72570.5,-0.43,-23.75,-22.73,0,*62
1488445694.72,16631,8.19,72582.5,-0.43,-23.99,-22.93,0,*6F
1488445695.97,16632,8.19,72556.8,-0.43,-23.75,-22.73,0,*60
1488445697.23,16633,8.19,72582.3,-0.39,-24.31,-23.33,0,*6E
1488445698.45,16634,8.19,72582.5,-0.39,-25.23,-24.31,0,*6E
1488445699.71,16635,8.19,72550.8,-0.43,-24.35,-23.33,0,*61
1488445700.98,16636,8.19,72534.0,-0.39,-23.65,-22.73,0,*68
1488445702.21,16637,8.19,72540.0,-0.39,-23.59,-22.87,0,*6D
1488445703.46,16638,8.19,72542.0,-0.39,-23.95,-23.13,0,*6E
1488445704.72,16639,8.19,72552.3,-0.39,-23.49,-22.67,0,*6C